Wind_Speed
26 27 32 35 34 32 32 30 29 26 22 20 21 22 24 25 22 18 18 17 17 23 26 25 25 22 23 23 19 18 19 19 18 15 15 16 20 21 18 16 19 21 21 19 16 16 17 22 24 24 25 26 27 28 28 28 28 29 30 29 28 27 26 27 28 28 28 26 25 23 22 20 19 19 18 16 15 14 15 14 14 13 12 12 11 10
27 32 36 35 31 28 29 29 27 26 25 22 20 21 23 25 24 20 21 20 16 18 21 22 24 24 22 24 23 21 20 20 20 18 16 16 19 22 20 17 18 20 23 20 18 19 18 20 23 25 26 26 27 29 28 28 28 30 31 30 30 30 29 28 27 28 28 26 24 23 21 19 17 17 17 16 16 15 15 15 14 14 14 13 12 12
30 36 35 30 28 26 25 27 28 27 27 25 21 21 22 22 23 21 21 23 19 17 19 20 22 23 22 22 22 22 21 20 21 20 17 16 18 22 21 18 17 20 23 22 19 20 19 19 22 25 26 27 27 29 29 29 29 30 31 31 31 31 30 29 27 27 27 25 24 22 21 20 18 17 17 17 17 17 17 16 15 16 16 14 14 13
32 34 31 27 26 27 26 26 28 28 28 28 24 23 22 20 21 21 21 23 22 18 18 19 21 22 22 22 22 22 22 20 21 20 18 17 17 20 22 19 18 21 23 22 20 20 20 20 21 23 26 28 28 29 29 29 28 29 30 31 31 31 31 29 28 27 26 26 25 23 22 21 20 19 19 19 19 18 18 16 16 17 16 15 15 14
30 23 23 27 26 27 28 26 27 29 29 29 28 26 24 22 21 21 20 22 23 21 19 19 20 23 24 24 24 24 23 22 23 22 20 18 17 19 20 18 19 22 22 21 20 20 22 21 21 22 25 28 28 28 28 28 28 27 29 31 30 31 30 29 28 26 26 26 26 25 24 24 24 22 21 21 20 19 18 17 16 16 16 16 16 16
29 18 17 26 29 28 28 28 28 28 27 29 31 29 25 23 21 21 20 18 21 22 21 21 19 19 24 27 26 24 24 24 25 24 22 19 18 20 19 17 21 23 21 22 20 19 22 22 22 22 23 27 28 28 27 27 28 27 28 30 31 30 30 29 28 27 27 27 27 27 27 26 25 24 21 20 19 18 17 17 17 16 16 16 17 17
30 23 19 23 28 29 29 29 29 28 26 26 28 29 28 25 22 22 22 19 20 19 19 23 21 17 21 26 26 25 26 27 26 25 24 22 20 21 19 19 23 22 20 21 20 19 21 23 23 22 21 23 25 27 27 27 28 28 28 29 31 31 30 29 28 28 28 28 28 27 27 26 24 22 20 19 18 18 18 17 18 17 17 17 17 17
30 28 24 23 26 29 30 29 27 28 27 24 21 22 27 29 26 23 22 22 20 18 17 23 26 23 22 24 24 26 28 28 26 24 24 23 21 22 20 19 22 22 20 19 18 18 20 22 22 21 20 20 22 26 28 28 28 27 27 28 30 30 30 30 29 28 28 28 28 26 25 25 23 21 20 20 19 18 18 18 18 18 17 18 18 18
28 30 29 25 27 29 30 28 25 26 27 23 18 17 20 25 28 27 24 23 21 19 20 23 26 23 21 22 23 25 28 27 26 25 26 25 23 22 20 19 21 22 20 18 17 17 18 20 20 19 19 19 22 25 27 27 27 27 27 27 29 30 30 30 29 28 28 27 26 25 25 24 23 22 21 21 20 19 18 18 18 18 18 17 18 19
24 29 30 27 27 28 27 25 24 26 27 22 17 17 17 17 21 26 26 26 23 20 22 25 26 20 16 22 25 25 28 27 26 27 27 27 28 27 23 19 18 19 19 20 19 18 18 18 18 17 19 21 22 22 23 27 28 28 28 28 29 30 30 30 29 28 27 26 26 25 25 24 24 23 22 21 20 20 19 19 18 19 19 18 17 18
22 23 28 29 28 26 24 23 24 25 25 21 18 17 15 14 16 19 23 25 20 19 24 28 29 23 15 20 27 28 28 27 25 25 25 25 27 29 26 19 17 17 20 22 22 21 20 19 18 19 20 21 21 21 23 27 29 29 29 29 28 29 30 30 29 28 27 26 26 25 25 24 24 24 23 22 20 19 19 19 19 18 18 18 18 18
27 23 25 29 29 26 23 22 24 24 23 22 21 18 15 15 16 16 20 22 16 15 23 28 30 27 21 21 24 25 27 28 26 26 27 26 25 28 27 22 19 17 18 21 24 24 23 22 21 21 20 21 23 23 22 24 28 29 29 29 29 29 31 30 29 28 28 27 27 26 26 25 25 25 24 23 20 20 20 19 18 17 16 16 16 16
33 30 25 25 29 28 25 23 23 24 25 24 23 22 18 14 14 14 15 17 15 15 20 24 27 29 30 29 25 22 24 26 27 27 29 29 28 29 29 24 21 20 16 18 23 25 25 23 22 22 21 21 22 23 21 21 25 28 29 29 30 30 31 31 31 30 29 29 28 27 26 26 26 26 25 23 22 21 21 19 17 16 14 13 14 14
31 31 28 26 29 31 30 27 26 26 29 29 27 26 21 13 10 11 11 11 14 17 20 21 21 25 30 29 27 28 25 22 24 27 28 30 30 30 30 26 23 22 19 16 20 25 25 23 22 21 21 20 21 22 21 21 24 26 27 29 30 30 31 32 32 31 30 30 28 27 27 26 27 27 25 24 23 23 22 20 17 15 14 13 13 13
26 26 35 35 30 32 35 31 27 25 27 30 28 26 24 18 12 10 10 11 11 14 20 22 19 21 24 21 23 29 30 25 23 24 26 27 28 29 31 30 24 23 23 18 17 23 23 21 22 22 22 21 21 21 22 22 23 26 27 28 29 30 32 33 33 32 31 30 29 27 27 26 26 27 26 25 24 24 23 20 18 17 15 13 13 13
29 26 33 37 30 30 36 34 27 23 25 28 27 26 27 25 18 11 11 15 15 12 15 22 23 21 20 17 16 20 26 29 27 23 24 26 27 28 28 28 26 24 24 21 18 19 19 19 21 23 23 22 21 22 23 23 22 23 25 27 28 29 30 32 33 33 32 31 29 28 27 26 26 27 27 26 25 25 23 21 20 18 16 15 14 14
29 25 25 34 33 30 34 36 32 26 24 26 29 31 29 25 20 14 11 12 13 10 11 18 23 20 16 16 16 16 19 27 30 27 26 25 26 27 27 29 31 27 24 22 20 18 17 16 17 20 23 24 23 22 22 22 21 20 21 23 27 28 29 31 32 32 33 32 30 29 27 27 27 27 27 27 26 25 23 22 21 19 18 18 17 16
22 23 23 32 36 31 30 33 34 30 24 24 30 31 26 21 20 17 12 8 8 8 9 15 19 19 16 14 15 18 19 22 28 30 28 27 28 28 28 29 31 28 25 24 21 18 18 16 14 17 21 23 23 23 22 21 22 21 19 19 23 27 29 30 31 31 32 32 31 30 29 28 27 27 27 28 27 26 25 24 22 21 20 20 19 19
19 20 22 30 35 31 30 32 34 34 30 24 24 27 25 21 21 20 14 9 9 7 7 13 15 16 18 16 14 18 21 21 23 26 28 27 29 30 29 29 29 28 28 26 23 22 20 16 14 16 18 20 22 24 25 24 23 23 20 18 19 23 26 27 29 30 31 31 31 30 28 27 27 27 28 29 29 28 27 25 23 22 22 22 22 21
20 20 19 26 32 29 30 34 36 37 36 28 22 24 28 23 20 23 18 13 10 7 6 11 12 14 19 19 14 14 18 21 21 22 23 24 25 28 29 29 29 30 29 26 24 23 20 16 15 15 15 17 20 23 27 27 25 24 23 21 18 19 22 26 28 30 30 29 30 30 29 28 27 27 28 30 30 29 28 26 25 24 23 24 24 23
17 21 18 21 30 31 32 37 38 37 39 36 29 26 28 26 21 20 21 19 15 8 5 7 8 12 16 17 15 13 15 19 21 21 21 21 23 24 26 27 28 29 29 28 26 24 19 16 15 15 14 16 19 22 26 27 26 26 25 24 21 19 20 23 26 28 29 29 30 30 30 28 28 27 28 29 30 29 28 27 26 26 25 26 25 25
14 17 20 20 29 33 34 35 35 35 37 37 34 28 27 28 24 17 15 20 21 13 8 6 5 5 8 9 12 14 14 16 18 19 19 20 21 21 24 25 26 29 29 28 27 25 20 17 15 14 13 14 17 20 23 26 27 27 27 26 25 23 22 21 21 23 25 28 30 30 30 29 29 28 28 29 30 29 28 28 28 27 27 27 27 26
18 13 18 21 26 29 29 29 30 32 34 34 34 30 27 28 28 20 12 16 20 17 13 10 7 4 10 8 9 10 12 14 16 18 17 18 19 19 21 22 23 27 27 25 25 24 21 18 17 16 14 12 14 17 20 24 27 28 28 28 28 27 24 22 21 20 21 24 26 27 28 29 30 30 29 29 29 29 29 29 28 28 28 28 28 28
28 18 16 18 22 23 25 27 29 29 31 34 35 33 30 29 28 23 14 13 16 18 16 11 7 5 11 13 11 8 8 11 14 17 17 16 17 18 19 19 20 24 26 25 23 22 23 22 20 19 17 14 13 15 18 22 25 28 30 30 29 28 26 25 24 23 22 22 22 23 25 27 28 29 30 30 30 29 29 29 29 29 29 29 29 30
31 28 22 16 15 18 21 22 26 31 33 34 35 35 33 30 27 24 18 14 14 16 18 14 9 8 12 13 8 6 8 12 13 15 16 15 16 17 17 17 20 24 26 25 23 22 24 24 23 22 19 16 14 15 16 19 24 28 30 31 31 31 30 29 28 27 25 24 23 23 23 24 26 27 28 29 29 29 29 29 29 30 30 30 30 31
24 29 28 21 15 14 15 16 23 33 35 32 32 35 35 33 29 27 23 17 14 14 17 16 11 10 12 10 9 10 11 13 13 15 16 15 15 17 18 18 20 23 23 20 17 17 19 21 23 24 21 17 16 15 17 20 23 27 30 31 33 34 34 33 32 31 28 26 26 25 24 24 25 26 26 27 28 28 28 28 30 30 31 30 30 32
15 21 27 30 24 12 6 7 12 24 32 32 32 33 35 36 32 29 26 22 17 14 15 16 12 12 14 12 13 14 13 13 14 16 17 17 15 14 16 16 17 18 18 15 13 13 14 16 20 21 18 17 16 16 16 18 21 25 29 31 34 37 38 36 36 35 32 30 29 28 27 26 25 25 25 25 26 26 27 28 30 31 31 31 31 32
13 20 25 30 31 19 7 4 2 14 26 29 32 33 33 36 35 33 29 25 20 16 15 17 14 9 13 15 14 15 16 15 16 17 17 16 13 10 10 11 10 11 12 13 13 13 13 13 14 15 15 16 17 15 14 14 16 20 25 30 33 36 38 39 39 38 36 34 32 31 29 28 27 26 25 25 25 25 26 27 29 31 32 32 32 33
14 21 24 26 29 23 14 9 5 9 16 19 27 34 33 34 37 37 33 26 22 18 14 18 21 13 10 15 16 16 16 15 14 13 11 11 11 8 7 8 8 6 7 10 13 13 14 13 14 15 16 16 17 16 14 13 13 15 19 25 31 35 38 40 41 40 39 38 35 33 31 30 29 28 27 27 26 26 26 27 28 29 30 30 30 31
14 19 23 25 26 23 17 13 9 7 9 11 18 27 32 34 34 35 34 28 24 21 14 14 22 21 14 14 16 16 15 12 10 8 5 5 6 5 4 5 5 5 6 8 10 12 15 16 15 16 16 16 18 18 17 16 15 15 17 20 26 32 36 39 39 40 40 38 36 35 34 33 32 31 30 29 29 28 27 28 28 28 28 29 29 29
17 17 17 18 21 23 20 15 11 9 8 9 11 16 25 33 32 32 33 30 26 24 18 12 15 21 19 15 13 12 14 13 7 6 7 5 4 4 3 4 4 4 5 6 7 11 17 18 16 15 14 14 17 19 19 18 16 16 17 19 22 27 34 37 37 37 38 38 37 37 36 36 35 34 33 31 31 30 29 29 30 30 30 30 31 30
12 9 10 13 15 19 20 16 14 12 10 12 13 13 18 24 28 30 29 27 25 23 20 15 14 16 16 15 12 10 12 12 9 9 11 10 8 8 8 6 5 5 5 5 6 9 13 15 15 14 15 15 16 19 19 19 17 16 16 18 21 25 30 34 34 33 34 36 38 38 37 37 36 36 35 34 33 32 32 32 32 32 33 33 33 33
4 5 7 13 14 18 20 19 18 14 11 16 20 20 17 17 21 23 22 22 22 19 18 18 16 14 12 12 13 12 11 12 12 11 11 11 12 13 14 10 7 6 6 7 8 7 8 11 13 15 16 16 16 18 19 20 19 17 16 17 20 23 26 30 31 29 29 31 34 35 36 36 36 36 35 34 34 34 34 34 33 33 34 35 35 35
3 4 4 10 15 18 17 16 18 17 15 18 21 21 19 19 20 20 19 20 20 20 19 16 13 13 12 11 13 14 12 11 10 9 7 8 11 14 16 14 12 11 10 10 10 10 11 13 15 16 17 16 16 17 18 20 21 20 18 17 18 21 23 27 29 27 24 25 28 30 31 32 34 35 35 34 35 35 35 35 33 33 34 35 35 35
4 5 5 6 11 16 16 14 13 16 18 19 18 18 20 23 24 22 22 21 21 21 22 18 15 13 12 10 10 11 12 12 10 9 10 10 11 13 15 15 15 16 15 13 14 16 17 18 17 17 17 17 18 19 19 20 22 23 21 18 18 20 23 26 29 27 22 21 23 25 26 27 29 32 34 34 34 34 35 34 33 33 34 35 35 35
7 7 8 8 9 11 14 15 11 9 11 15 16 15 17 20 24 26 27 25 23 21 20 20 20 16 13 13 11 10 10 10 11 15 17 16 14 13 14 15 13 13 15 16 19 20 20 20 19 19 18 18 19 20 20 20 22 23 23 21 19 21 23 25 28 28 24 21 22 23 23 23 26 28 30 31 32 32 32 33 33 33 35 36 36 36
10 8 10 13 13 12 12 16 13 7 6 11 15 14 13 16 20 23 25 25 25 23 19 16 15 15 13 12 11 11 12 14 17 21 20 17 15 15 15 14 13 15 19 21 21 21 22 23 22 20 19 19 19 20 21 21 22 22 22 22 22 21 23 24 27 30 28 24 23 24 24 23 24 26 27 28 28 28 29 31 33 34 35 36 37 37
14 12 10 12 15 16 15 15 14 11 10 14 15 13 12 15 16 16 17 19 20 21 22 19 15 14 14 12 12 15 19 22 22 21 19 17 17 19 19 17 17 20 23 22 19 20 24 26 24 22 21 22 22 21 21 22 21 21 21 22 23 23 23 23 24 27 31 31 28 27 27 27 26 27 28 27 27 28 29 31 33 34 36 37 38 38
15 14 13 13 16 19 20 17 14 13 12 13 14 14 13 14 13 13 14 18 17 17 22 25 20 16 17 17 18 23 25 23 18 16 18 20 20 21 21 21 22 22 20 19 20 21 23 24 25 24 23 23 24 24 23 23 22 21 20 21 23 24 23 23 22 23 28 33 35 32 30 30 29 29 29 30 29 30 32 33 34 36 37 38 39 40
16 15 16 18 19 20 20 19 17 15 10 7 10 13 14 12 13 13 12 14 16 14 19 23 16 11 14 16 19 24 25 21 17 17 21 23 21 22 22 21 22 21 19 20 22 20 20 22 25 25 24 25 26 26 26 25 23 22 21 21 22 24 24 24 23 22 24 29 36 38 35 33 32 31 31 32 33 33 34 35 37 38 38 39 40 42
18 17 17 20 22 23 21 19 20 17 10 6 8 11 12 12 14 14 10 11 16 14 16 20 15 11 16 19 18 19 20 22 24 26 26 25 24 24 23 21 21 22 21 22 22 20 20 21 22 23 24 24 25 27 29 29 26 23 22 21 21 22 24 26 26 25 24 25 31 38 40 37 35 34 34 34 34 36 37 37 38 39 40 41 42 43
18 18 18 19 21 23 23 21 21 17 12 11 10 10 12 12 12 13 11 11 12 10 11 17 18 18 21 22 21 21 22 23 25 26 28 28 27 27 26 24 23 23 23 24 23 22 21 21 21 22 23 23 24 26 29 30 29 26 23 21 20 20 22 26 28 27 27 26 27 33 40 41 39 37 36 35 36 37 38 39 40 41 41 42 43 44
17 17 19 21 20 21 24 23 19 13 10 15 16 12 12 11 10 11 13 10 8 7 9 13 16 17 20 21 20 19 21 23 24 25 26 27 28 28 28 27 25 24 24 25 25 24 22 21 21 23 24 24 23 25 27 30 31 29 26 23 22 20 20 24 27 28 28 26 26 30 38 42 42 40 39 39 39 40 40 42 43 43 44 44 45 46
14 15 17 19 18 20 23 21 18 12 8 14 17 11 10 15 15 13 13 10 7 8 10 11 12 14 16 18 16 14 14 17 22 24 25 26 26 26 26 26 27 26 25 25 26 25 24 23 22 24 26 26 24 23 24 26 29 30 29 26 24 22 20 21 23 24 24 24 24 28 35 42 44 43 43 43 43 43 44 44 45 46 46 46 47 48
12 14 17 17 15 18 21 16 12 12 10 12 14 10 11 19 20 15 15 14 11 10 11 11 13 15 14 13 12 12 12 12 16 18 20 22 24 25 25 25 26 27 27 27 27 27 27 27 25 24 27 27 26 24 23 24 25 27 29 28 25 23 22 21 21 21 20 20 20 23 29 36 41 44 45 45 46 47 46 46 47 47 47 47 47 48
11 14 18 19 15 18 24 20 11 8 9 9 11 15 19 23 22 20 20 20 19 17 15 15 16 17 18 16 14 13 13 14 15 16 17 18 19 20 22 23 25 28 29 29 29 28 29 29 27 25 26 28 28 25 23 22 23 24 25 26 26 25 24 23 22 21 20 20 19 19 22 26 30 35 39 42 44 45 45 45 45 45 46 46 47 47
12 13 16 17 16 16 23 24 16 10 10 9 9 14 19 22 25 27 28 28 28 27 24 22 20 19 20 20 20 18 17 17 17 17 17 18 19 19 19 20 22 26 28 30 30 29 29 30 29 27 26 27 28 27 24 23 22 22 22 24 25 25 25 25 24 23 22 22 21 21 20 20 21 24 27 30 32 34 35 37 38 39 40 41 43 44
10 12 14 16 18 18 20 23 20 17 18 18 14 15 16 17 23 29 31 31 31 29 28 26 24 22 21 20 20 22 21 20 19 18 18 18 18 18 20 21 21 23 26 29 31 30 30 31 31 29 28 27 27 26 25 23 22 21 22 23 24 25 25 25 26 26 25 24 24 24 23 22 21 21 21 23 24 26 27 28 30 33 34 36 38 40
12 14 14 14 17 20 20 21 22 23 25 26 22 19 19 22 26 28 29 28 26 25 25 24 24 24 24 22 20 21 22 22 22 21 21 20 19 19 20 21 22 23 25 27 29 30 30 31 31 30 30 28 27 25 25 24 23 22 22 22 22 22 23 24 24 25 26 26 27 27 27 26 25 24 23 23 23 24 24 25 27 29 31 32 34 36
17 19 18 16 17 20 20 18 19 21 24 24 23 21 25 32 34 33 30 28 27 26 25 25 24 24 25 24 22 22 22 23 23 23 23 22 23 23 24 24 24 25 26 27 28 29 30 31 31 31 30 29 27 25 24 24 24 24 23 23 22 21 21 21 22 24 25 27 28 28 28 28 27 26 25 24 24 24 24 24 25 26 28 30 32 32
21 22 21 20 21 21 19 18 19 21 22 23 25 25 27 32 35 34 32 30 29 29 28 28 28 27 26 26 25 24 23 24 26 27 28 27 26 27 27 27 28 28 29 29 29 29 29 31 31 30 29 28 27 26 25 25 25 25 25 24 24 23 22 22 23 25 26 26 27 28 28 28 28 27 26 25 25 25 25 26 26 27 28 29 31 32
Wind_Direction
195 202 207 210 211 209 209 211 214 218 220 220 220 220 220 222 224 219 215 209 202 208 213 216 219 219 215 217 218 214 212 213 216 215 212 213 209 220 237 226 219 227 222 212 210 215 217 215 213 208 206 206 205 205 206 207 205 201 202 203 203 202 202 202 202 203 203 202 202 202 204 205 208 208 207 210 212 213 218 223 225 230 233 233 234 233
200 210 214 213 211 210 212 212 214 217 221 225 225 226 224 222 222 217 212 206 201 211 215 215 220 222 218 219 221 216 213 216 217 214 214 214 211 221 242 235 216 221 222 213 209 214 217 216 215 212 211 210 208 207 208 210 209 205 203 203 203 203 204 205 204 205 205 205 206 206 208 210 213 215 214 214 217 219 223 226 228 233 236 234 234 235
205 218 217 214 213 212 214 213 215 217 220 225 225 227 227 221 220 219 214 209 205 212 220 220 222 225 222 220 220 216 216 217 214 213 215 216 212 219 239 240 218 214 218 215 210 213 217 218 217 216 215 214 212 211 211 211 210 208 206 205 204 204 206 207 207 207 208 208 210 210 210 213 216 219 218 218 219 221 225 227 230 235 237 235 235 236
207 221 217 212 212 211 214 213 214 217 220 223 220 222 225 218 216 217 213 210 210 217 227 228 229 229 226 225 224 223 223 219 213 213 215 220 215 215 236 244 221 212 215 215 210 211 216 219 219 219 218 218 216 214 214 214 214 211 209 209 207 206 207 208 209 209 208 209 211 212 213 214 217 218 218 219 220 221 226 228 232 237 238 236 235 236
211 220 215 210 210 210 212 212 211 213 218 221 221 220 222 219 218 219 218 213 213 223 230 230 234 233 227 226 225 224 224 217 213 214 215 221 215 211 233 244 222 216 219 217 211 211 216 220 223 222 220 220 220 219 217 216 218 216 212 212 211 210 209 209 210 210 209 210 211 211 212 213 215 217 216 218 219 221 226 229 233 238 240 237 234 234
218 218 211 207 208 209 210 211 210 211 217 220 222 222 222 223 223 226 228 219 216 225 224 222 233 234 225 225 226 222 221 216 212 213 216 219 214 212 226 232 221 218 219 219 215 215 219 222 225 224 222 223 223 224 222 219 219 218 216 215 214 213 212 212 211 212 212 212 212 212 213 214 216 217 217 219 220 222 224 226 231 235 236 234 233 233
221 216 211 206 206 208 209 213 212 210 217 222 221 221 222 227 229 229 229 222 221 230 227 220 227 239 231 225 227 225 223 220 212 210 215 217 218 220 222 223 224 221 217 215 213 216 222 223 227 229 227 227 227 226 225 223 221 219 218 216 216 215 214 214 213 213 214 214 215 214 215 217 220 220 219 221 222 223 223 224 228 231 232 230 231 232
218 213 211 207 204 207 209 213 211 207 215 222 219 218 220 225 228 228 229 229 229 239 242 227 224 236 238 229 226 226 226 221 210 207 212 215 221 228 228 226 229 225 213 207 207 216 225 228 231 234 231 230 231 229 225 225 223 222 221 219 218 217 215 215 215 215 216 217 217 216 216 218 220 220 220 221 223 223 223 222 224 228 230 229 230 231
214 211 210 206 204 209 211 211 208 205 214 221 216 215 218 221 225 225 228 234 235 241 244 232 224 232 238 232 227 225 226 218 208 213 217 216 219 226 231 230 231 227 213 203 208 220 228 232 236 237 234 230 230 231 228 227 226 224 223 222 220 218 216 215 216 216 217 219 219 218 218 218 218 219 218 219 222 223 224 224 224 226 228 230 233 234
215 213 211 210 209 211 212 208 206 207 212 216 213 215 216 216 220 221 226 232 235 240 240 230 226 233 240 234 226 222 224 218 213 221 222 219 222 228 232 226 222 223 214 205 210 219 227 232 237 238 234 229 228 233 232 228 228 226 223 222 221 219 217 216 216 217 218 219 220 218 218 217 216 217 218 220 222 223 225 226 227 228 228 229 232 236
220 216 213 214 214 213 211 207 208 210 210 210 210 209 209 211 215 217 221 226 233 238 235 230 227 233 241 234 225 222 223 220 218 218 214 217 227 234 233 221 214 217 212 209 207 210 218 222 225 231 233 230 228 231 231 229 228 227 223 222 221 219 218 217 217 217 218 219 220 219 218 217 216 217 219 223 225 223 224 227 229 232 232 230 230 234
222 217 212 214 214 209 207 208 208 209 206 204 206 202 199 205 208 214 215 217 229 236 230 228 228 232 239 235 229 228 226 224 223 216 212 219 225 231 231 218 214 219 212 213 210 205 209 212 215 223 229 230 228 228 230 229 229 228 224 222 221 220 219 218 218 217 218 219 220 219 218 217 217 219 220 223 224 221 224 228 230 234 236 236 234 235
220 218 210 209 211 205 203 205 202 200 201 200 202 199 198 197 196 207 209 210 226 234 227 225 222 230 239 238 232 232 228 224 225 220 216 219 217 223 230 219 214 223 219 215 215 209 206 211 218 224 227 228 228 230 232 230 229 228 224 222 221 220 219 219 218 218 218 220 220 220 219 218 218 219 221 222 220 218 221 226 228 232 236 237 238 239
214 217 213 206 207 205 202 202 195 193 196 198 198 196 198 197 190 201 206 211 226 227 224 222 220 229 239 239 232 231 230 224 224 221 216 218 213 213 226 222 211 220 225 218 217 214 210 212 219 224 227 229 229 230 232 230 228 227 224 222 221 220 220 220 219 219 220 221 222 222 220 220 221 221 221 221 217 216 220 224 227 231 234 235 236 239
207 212 212 206 204 203 202 203 198 191 194 198 198 198 203 209 205 202 206 214 222 222 217 213 218 230 234 236 233 230 228 225 225 222 215 216 210 206 221 225 213 214 224 226 220 215 212 214 221 223 225 227 227 226 228 228 227 225 223 221 221 222 221 221 221 221 221 222 223 223 223 223 223 223 222 220 216 215 219 223 226 230 232 236 237 238
212 219 214 206 205 203 200 203 200 193 195 198 198 204 210 211 213 221 222 220 223 226 214 207 215 230 234 236 235 228 225 221 221 219 212 212 208 205 213 217 208 207 216 221 218 211 210 216 222 223 225 226 223 221 224 228 228 226 223 220 220 223 224 224 223 223 223 224 224 224 225 225 225 225 223 219 215 215 219 222 225 229 232 236 239 238
213 223 215 203 204 205 201 200 200 198 195 191 197 208 211 209 217 231 233 224 227 233 219 208 213 221 229 232 225 219 221 218 216 216 212 208 206 203 202 205 208 207 206 210 212 206 206 218 227 228 229 228 224 220 223 228 230 228 225 222 219 220 223 224 225 225 225 225 225 226 226 226 227 227 223 219 215 216 220 222 224 228 231 235 238 239
215 222 213 200 200 202 200 199 201 204 199 191 199 207 206 207 219 232 235 219 217 230 223 213 211 209 212 221 217 213 216 215 212 212 212 209 207 205 202 206 212 210 205 211 219 218 212 218 231 234 232 230 226 223 224 227 228 227 226 224 221 220 221 223 224 226 227 226 227 227 227 227 227 227 224 219 216 216 220 223 225 228 231 235 238 240
219 224 213 199 199 197 193 197 203 207 207 203 204 203 200 203 210 216 225 221 212 219 219 219 221 213 209 214 216 211 210 210 207 206 210 211 210 209 207 206 207 203 204 211 222 227 221 219 227 232 231 229 226 225 224 224 225 225 225 222 220 221 222 223 224 225 226 226 227 227 227 227 227 227 224 220 217 217 220 224 226 227 231 235 238 240
215 223 212 193 192 190 188 197 202 202 204 209 213 205 202 208 209 206 213 223 220 220 216 215 221 223 221 218 213 206 203 204 202 200 205 207 205 205 205 203 202 200 202 209 217 219 217 218 225 225 225 226 227 226 224 223 224 224 224 220 217 217 218 219 221 223 225 224 225 226 226 226 226 226 225 221 220 220 221 224 227 229 231 234 238 241
216 225 216 183 182 190 194 199 202 198 196 202 209 205 201 206 211 210 213 217 219 230 227 216 221 221 218 212 207 203 197 198 201 200 201 203 201 199 199 198 198 199 201 207 216 220 219 219 217 215 220 226 229 228 225 225 225 223 223 221 217 213 212 215 218 220 221 221 223 224 224 225 225 225 225 223 223 224 223 225 229 231 233 235 238 241
215 227 220 189 184 199 203 201 203 202 197 199 203 204 199 198 202 207 209 208 214 227 228 232 247 183 159 182 203 205 199 194 198 199 196 198 198 196 197 197 198 202 205 208 215 220 220 217 212 211 217 222 228 231 227 226 226 224 223 221 218 216 214 213 214 216 217 217 220 222 222 224 225 226 226 225 225 226 225 226 230 232 234 236 238 241
214 234 231 206 195 206 210 203 203 205 203 203 205 206 202 200 201 205 205 199 205 216 220 230 245 136 117 143 168 174 192 196 193 194 193 192 195 194 193 195 197 201 204 207 212 214 215 218 219 217 218 221 228 234 230 227 227 226 225 223 221 220 219 215 213 212 212 214 217 218 220 223 225 226 227 227 227 227 227 228 229 231 234 236 238 241
215 230 237 220 204 204 205 203 203 205 205 206 207 207 206 204 203 206 208 197 197 205 205 209 228 170 134 140 144 142 174 184 182 189 191 189 190 189 188 192 196 196 198 202 205 207 211 216 217 215 220 226 227 232 233 229 227 227 226 225 224 223 223 220 217 214 211 210 212 214 216 218 221 223 225 227 228 228 229 230 231 232 234 236 238 241
210 217 223 223 207 197 196 196 198 202 207 208 207 206 208 208 205 206 209 206 204 203 196 199 219 193 155 149 161 170 166 166 168 174 177 178 180 180 181 185 185 187 193 200 203 204 208 212 213 213 220 226 223 228 235 233 230 227 225 225 225 225 225 223 222 221 217 211 208 211 213 215 216 219 221 223 226 228 229 231 234 235 235 235 237 241
202 209 214 217 210 193 193 196 196 198 203 208 207 205 207 208 205 205 207 209 211 200 195 203 199 156 140 139 150 155 150 149 153 155 158 159 159 165 175 184 186 189 197 203 206 208 210 215 217 217 223 226 220 221 231 235 233 228 226 225 225 226 227 225 226 227 225 218 212 212 213 214 216 218 220 222 225 229 230 232 235 237 238 237 238 241
200 210 213 217 220 215 199 209 205 199 200 206 207 204 205 207 206 206 208 210 207 196 197 206 186 141 143 149 144 149 150 142 139 143 145 146 148 156 168 181 192 199 204 203 198 200 205 212 218 221 225 225 220 218 225 234 236 233 229 226 224 225 226 226 227 229 229 225 219 217 216 216 218 220 222 224 227 230 233 235 238 240 242 242 241 242
207 220 217 219 228 240 266 304 245 198 202 208 208 205 204 205 206 208 211 209 202 199 201 203 197 163 155 161 156 154 155 146 137 133 133 138 141 138 143 154 170 193 207 202 191 191 195 199 205 210 211 211 212 215 219 229 237 237 236 232 227 225 226 226 227 228 230 229 225 222 221 220 220 222 225 227 228 230 234 236 239 242 245 246 245 244
213 222 218 218 226 235 248 273 278 211 214 220 213 208 205 204 205 208 211 208 202 206 205 197 201 198 159 159 166 160 153 148 146 144 136 136 141 140 142 144 145 165 197 203 199 194 193 194 191 192 197 202 207 214 222 230 236 239 241 238 234 229 227 228 228 228 229 230 228 226 225 224 224 224 225 229 230 230 233 237 239 241 244 247 248 246
205 216 220 219 224 231 235 244 257 244 234 228 216 210 207 205 205 207 210 209 206 210 208 193 197 200 180 158 159 160 161 167 174 181 175 158 164 179 177 160 154 160 178 207 214 193 179 180 182 183 191 199 206 215 226 233 237 241 245 245 241 236 231 231 232 231 230 231 230 227 226 227 227 226 226 228 231 232 234 238 241 242 244 247 250 249
198 211 225 218 223 231 226 225 242 246 231 228 230 222 211 207 205 205 207 207 207 207 204 189 186 195 195 185 176 179 186 190 199 208 203 205 225 238 217 196 208 205 182 195 208 186 174 175 178 179 183 192 201 211 222 230 235 239 243 246 247 241 235 235 238 237 233 232 231 229 227 227 228 228 228 228 231 234 236 238 241 244 245 247 250 251
199 227 240 218 227 233 220 216 228 230 235 245 241 222 207 203 202 202 204 206 205 203 202 196 187 188 195 203 211 216 212 217 236 242 236 245 257 252 245 241 240 233 219 210 208 205 201 199 196 192 188 191 198 204 213 224 230 233 238 243 246 243 238 237 241 243 238 233 231 229 228 227 227 228 229 228 230 232 235 237 239 241 243 245 247 250
223 283 240 210 224 230 218 216 220 222 242 242 225 211 204 202 200 200 203 206 205 205 205 204 201 198 202 214 225 233 238 242 252 258 257 255 250 240 236 238 243 243 247 237 219 214 219 219 218 212 203 199 202 205 211 219 223 228 233 237 240 243 241 239 240 244 242 236 233 232 231 229 228 229 230 230 230 232 234 236 238 239 241 244 245 248
284 291 247 211 220 218 207 208 216 220 228 223 213 211 213 210 208 209 211 212 213 216 216 213 211 213 218 226 231 234 236 236 238 241 244 250 250 239 228 231 242 243 245 245 230 221 223 221 220 220 216 210 208 211 215 218 219 224 229 233 237 241 242 239 238 241 241 236 235 236 234 233 231 231 232 232 232 233 235 238 239 240 242 245 246 248
282 259 242 221 225 211 181 171 203 226 230 224 216 218 223 221 219 221 223 222 222 224 225 226 224 220 221 223 222 219 218 221 228 230 227 234 248 246 234 231 237 238 243 249 241 232 229 224 221 225 225 220 216 214 216 217 218 222 227 233 237 239 241 239 237 238 239 235 234 235 235 234 233 232 232 234 235 236 237 240 241 242 243 246 249 251
260 256 234 224 242 230 189 178 199 229 231 222 214 213 220 220 218 221 226 226 224 223 227 230 229 228 228 222 215 216 222 227 233 232 232 240 255 262 254 245 244 249 255 253 242 233 230 227 227 230 230 228 225 221 217 216 218 222 226 231 235 238 241 240 238 238 237 234 233 234 233 233 233 232 232 234 235 236 238 240 242 242 242 245 248 252
240 246 233 223 229 236 216 202 201 200 195 196 199 208 214 210 210 217 224 226 224 223 225 223 217 214 213 210 216 233 238 237 240 245 252 265 271 268 263 256 254 257 254 245 235 230 230 231 231 233 234 233 233 231 225 220 218 222 226 229 232 236 240 241 241 240 238 235 232 231 231 230 231 233 234 235 237 238 240 241 241 242 242 244 248 251
225 225 226 225 222 223 224 217 208 210 212 200 198 204 205 203 207 212 221 226 222 218 220 219 215 218 224 229 240 246 244 246 255 265 270 267 259 253 249 242 239 243 243 237 230 228 230 231 232 235 237 236 236 237 233 227 223 224 228 230 232 235 239 242 244 243 241 239 234 231 228 227 228 233 236 238 240 242 242 242 243 243 244 246 248 251
216 219 220 227 224 215 217 223 220 221 224 213 204 198 192 193 191 190 208 219 209 205 218 224 229 239 242 243 244 246 249 253 260 266 257 248 249 252 249 241 238 241 240 236 235 233 229 229 232 234 237 238 238 238 236 232 230 229 231 234 236 237 239 243 247 248 245 241 238 235 232 230 230 233 236 239 241 242 243 244 244 245 245 247 248 250
205 211 212 218 221 216 217 223 221 219 219 205 187 180 178 178 174 176 193 195 182 186 210 216 218 230 232 235 241 245 251 250 242 239 240 240 244 248 247 243 240 240 238 236 237 234 230 230 230 231 234 238 239 239 237 234 233 232 233 236 239 241 242 245 248 251 251 246 240 236 235 234 234 234 236 238 240 241 243 244 245 246 246 247 248 249
197 203 208 214 218 218 219 222 221 218 213 186 165 160 162 168 175 183 180 158 160 177 196 197 198 213 223 232 240 241 241 238 231 231 234 234 238 243 246 245 240 237 236 234 234 231 229 230 228 227 230 234 237 238 237 235 234 233 232 233 236 240 243 245 247 250 255 255 245 238 235 235 236 236 236 238 239 240 241 243 244 245 246 246 247 247
196 200 207 213 216 218 218 220 224 220 195 178 180 167 164 172 179 181 166 145 156 174 184 190 201 215 222 228 236 236 234 235 233 232 232 232 234 240 245 246 243 239 237 236 233 229 228 229 229 226 224 226 231 235 235 234 234 233 230 228 228 231 237 242 245 250 255 258 253 242 235 234 235 236 236 236 237 238 239 241 243 244 245 246 247 248
202 202 206 208 212 217 217 216 222 218 175 174 189 181 173 187 189 173 166 156 158 169 176 186 198 211 218 223 232 238 236 234 233 232 231 231 232 236 241 244 243 240 239 239 237 233 230 231 230 225 221 220 225 230 231 232 233 233 231 227 224 225 231 237 241 246 251 255 254 246 237 233 233 235 236 236 236 237 238 240 242 243 244 245 247 248
212 212 215 210 204 211 218 217 215 213 189 183 191 188 187 200 200 185 178 176 175 181 187 192 195 202 213 220 230 238 236 231 232 233 233 232 232 234 236 238 239 238 239 241 240 237 236 236 233 227 222 219 221 226 228 230 232 233 233 231 227 227 231 233 235 239 243 248 251 248 242 236 233 233 235 236 237 238 239 241 242 244 245 246 247 248
220 218 224 224 212 208 215 216 207 208 207 195 196 207 209 204 207 214 210 207 212 213 211 214 213 211 218 229 240 250 249 237 232 233 234 232 232 233 234 235 235 235 236 239 241 239 239 240 237 231 225 219 219 223 227 229 230 231 231 231 230 231 233 234 233 234 237 241 245 247 245 241 238 236 236 237 238 239 240 242 244 246 247 249 249 250
239 227 226 234 237 224 216 213 213 220 222 213 218 229 224 212 213 228 233 231 235 236 232 232 231 227 231 236 242 252 256 249 242 241 241 238 236 235 236 237 236 234 234 237 239 240 241 241 239 235 229 222 219 221 224 228 231 231 230 230 230 231 234 235 235 235 237 241 244 244 244 242 241 240 240 242 243 243 244 246 248 250 252 253 254 254
251 240 234 240 251 244 227 222 229 242 244 251 246 226 219 219 223 230 236 240 243 246 247 248 247 241 236 235 237 242 247 250 248 245 245 247 245 243 243 243 242 239 237 237 238 240 242 243 241 238 234 226 221 219 221 225 229 231 231 230 229 231 233 235 237 238 240 243 246 247 244 241 239 239 241 244 246 248 250 252 254 256 258 260 260 259
248 241 239 241 247 251 243 238 247 255 250 248 234 200 197 219 226 224 228 235 239 242 244 246 247 246 241 235 235 238 243 251 256 254 253 253 252 251 251 251 249 247 243 240 238 239 242 243 242 240 236 230 224 222 222 225 229 231 231 231 231 232 233 235 237 239 241 244 247 247 245 243 242 241 243 245 248 251 254 256 258 260 262 263 262 261
249 243 239 239 244 249 248 248 258 262 251 239 227 213 218 233 232 222 221 225 226 228 232 234 237 242 242 239 238 238 242 249 257 261 262 261 258 259 260 258 256 254 251 247 242 241 242 243 243 241 237 233 229 226 226 228 230 231 232 232 232 233 234 236 238 240 242 243 244 245 245 245 245 245 245 247 249 252 255 258 261 263 265 265 264 263
251 248 244 242 246 247 245 245 252 257 252 241 231 228 236 240 236 228 223 220 219 221 224 227 230 234 237 240 242 241 241 244 248 253 258 260 261 261 262 262 260 258 256 254 250 246 244 244 242 240 237 234 232 231 231 232 232 232 232 233 235 236 236 237 238 239 240 241 242 243 244 244 244 244 245 247 250 252 255 258 261 263 265 265 266 266
250 249 244 242 244 245 246 245 244 249 252 243 228 224 234 241 238 231 224 219 217 216 216 219 223 227 230 234 239 243 245 246 247 247 249 252 254 256 257 256 257 258 258 258 256 251 246 242 239 236 235 234 235 235 235 236 237 236 235 235 236 236 235 234 235 237 238 240 241 241 240 241 242 243 244 246 250 253 257 259 260 261 262 263 265 266
Height
3122 3122 3119 3117 3119 3122 3124 3126 3129 3131 3132 3132 3133 3133 3133 3134 3133 3134 3136 3138 3140 3142 3143 3144 3145 3147 3148 3149 3151 3152 3153 3154 3155 3156 3157 3158 3158 3157 3155 3157 3159 3160 3161 3162 3164 3165 3166 3168 3169 3171 3172 3174 3175 3177 3179 3180 3182 3184 3186 3188 3190 3192 3193 3194 3196 3198 3199 3201 3203 3204 3206 3208 3210 3211 3213 3214 3215 3216 3216 3217 3218 3218 3219 3220 3220 3221
3119 3116 3112 3114 3118 3122 3124 3126 3128 3130 3130 3130 3131 3130 3130 3130 3131 3133 3135 3137 3139 3140 3140 3142 3143 3144 3145 3146 3148 3149 3150 3151 3152 3154 3154 3156 3157 3155 3154 3155 3157 3159 3160 3160 3162 3163 3164 3166 3167 3169 3171 3172 3174 3175 3177 3179 3181 3183 3185 3186 3188 3190 3191 3193 3195 3197 3199 3201 3202 3204 3206 3208 3209 3211 3212 3213 3215 3215 3216 3216 3217 3218 3218 3219 3220 3220
3113 3108 3109 3114 3118 3121 3123 3124 3126 3127 3128 3129 3129 3129 3128 3128 3129 3130 3132 3135 3137 3138 3139 3140 3141 3141 3142 3143 3144 3146 3147 3148 3150 3151 3152 3153 3155 3154 3152 3153 3155 3157 3158 3158 3159 3161 3162 3164 3165 3167 3169 3171 3172 3174 3176 3177 3179 3181 3183 3184 3186 3188 3190 3191 3194 3196 3198 3200 3202 3204 3205 3207 3209 3210 3211 3212 3213 3214 3214 3215 3216 3217 3217 3219 3219 3220
3106 3104 3108 3114 3116 3118 3120 3121 3123 3125 3126 3126 3127 3127 3126 3126 3128 3128 3129 3132 3134 3136 3137 3138 3139 3139 3140 3141 3142 3143 3144 3145 3147 3149 3150 3151 3153 3152 3150 3151 3152 3153 3155 3155 3157 3159 3160 3162 3163 3165 3167 3169 3171 3172 3174 3176 3177 3179 3181 3183 3185 3186 3188 3190 3192 3195 3197 3199 3201 3203 3204 3206 3207 3208 3209 3210 3212 3213 3213 3214 3215 3216 3217 3218 3219 3219
3102 3104 3108 3111 3113 3115 3117 3118 3120 3122 3122 3123 3123 3124 3124 3126 3126 3126 3127 3129 3131 3133 3134 3137 3136 3135 3137 3138 3139 3141 3142 3143 3144 3146 3148 3149 3150 3150 3148 3148 3150 3151 3152 3153 3154 3157 3158 3160 3161 3163 3165 3167 3169 3170 3172 3174 3176 3178 3180 3182 3184 3185 3187 3189 3191 3194 3196 3198 3199 3201 3202 3204 3205 3206 3207 3209 3210 3212 3212 3214 3214 3215 3216 3217 3218 3218
3102 3105 3107 3108 3110 3112 3114 3115 3116 3118 3119 3120 3120 3121 3123 3125 3125 3126 3126 3127 3128 3129 3131 3134 3132 3130 3133 3135 3135 3137 3139 3139 3141 3142 3145 3146 3147 3147 3145 3146 3147 3148 3150 3151 3152 3155 3156 3158 3159 3161 3163 3165 3167 3169 3171 3173 3175 3176 3178 3180 3182 3184 3186 3188 3190 3192 3194 3196 3197 3199 3200 3201 3203 3205 3206 3208 3210 3211 3212 3213 3214 3214 3215 3216 3217 3218
3101 3104 3105 3105 3107 3109 3110 3111 3113 3115 3117 3116 3116 3119 3122 3124 3125 3125 3125 3126 3126 3126 3127 3130 3128 3126 3128 3130 3132 3135 3135 3136 3137 3139 3141 3143 3144 3144 3144 3144 3144 3145 3148 3148 3149 3152 3154 3156 3158 3159 3162 3164 3165 3167 3169 3171 3173 3175 3177 3179 3181 3182 3184 3186 3188 3190 3192 3194 3195 3197 3199 3201 3203 3205 3206 3208 3209 3210 3211 3212 3212 3213 3214 3215 3216 3217
3096 3100 3101 3102 3104 3106 3106 3107 3109 3112 3114 3113 3115 3118 3120 3122 3124 3124 3125 3125 3125 3126 3125 3125 3125 3124 3123 3125 3128 3131 3131 3132 3134 3136 3138 3140 3141 3142 3142 3142 3142 3143 3145 3144 3146 3150 3152 3154 3156 3158 3160 3162 3164 3165 3167 3169 3171 3173 3175 3177 3179 3181 3183 3185 3187 3188 3190 3192 3194 3196 3198 3200 3202 3204 3205 3206 3207 3209 3210 3210 3211 3212 3213 3213 3214 3215
3093 3095 3097 3099 3101 3101 3102 3104 3107 3110 3111 3111 3114 3116 3117 3120 3121 3123 3125 3124 3124 3125 3121 3120 3122 3119 3116 3120 3125 3126 3127 3128 3131 3133 3135 3137 3138 3139 3140 3140 3139 3140 3140 3141 3144 3148 3150 3152 3154 3156 3159 3161 3162 3163 3165 3167 3169 3171 3173 3175 3177 3179 3181 3183 3185 3187 3189 3191 3193 3195 3197 3199 3201 3202 3203 3205 3206 3207 3208 3209 3210 3211 3211 3212 3213 3214
3091 3092 3095 3097 3097 3098 3099 3102 3105 3107 3108 3110 3113 3115 3116 3117 3119 3122 3122 3122 3124 3121 3116 3118 3119 3115 3113 3117 3121 3121 3122 3125 3127 3130 3132 3133 3134 3136 3139 3139 3138 3138 3138 3140 3144 3146 3148 3151 3153 3155 3157 3159 3160 3162 3164 3166 3167 3169 3171 3173 3175 3177 3179 3181 3184 3186 3188 3189 3191 3193 3195 3197 3199 3200 3202 3203 3204 3205 3207 3208 3209 3210 3211 3211 3212 3213
3089 3090 3092 3093 3094 3095 3098 3101 3102 3104 3106 3109 3112 3112 3115 3116 3118 3119 3119 3122 3121 3112 3111 3115 3117 3115 3112 3112 3116 3117 3118 3121 3124 3127 3128 3129 3130 3132 3136 3138 3138 3138 3138 3140 3142 3144 3147 3149 3151 3153 3154 3157 3159 3160 3162 3163 3165 3166 3168 3171 3173 3175 3177 3180 3182 3184 3186 3188 3189 3191 3193 3195 3197 3199 3200 3201 3203 3204 3206 3207 3208 3209 3210 3210 3211 3212
3086 3087 3087 3088 3090 3093 3096 3098 3099 3102 3104 3107 3108 3110 3112 3113 3116 3116 3116 3119 3113 3104 3107 3113 3115 3116 3108 3106 3112 3113 3115 3119 3120 3122 3124 3126 3127 3129 3133 3137 3138 3137 3137 3139 3140 3142 3144 3146 3148 3150 3152 3154 3156 3158 3159 3161 3162 3164 3166 3168 3171 3173 3175 3177 3180 3182 3184 3186 3187 3189 3192 3194 3195 3197 3198 3200 3201 3203 3204 3206 3207 3207 3208 3209 3210 3210
3081 3081 3083 3085 3087 3089 3092 3094 3095 3099 3101 3103 3105 3107 3108 3107 3110 3111 3109 3108 3103 3100 3106 3109 3112 3110 3102 3103 3111 3111 3112 3115 3116 3119 3121 3123 3126 3127 3130 3134 3137 3137 3137 3137 3139 3140 3142 3143 3145 3147 3149 3152 3154 3155 3157 3159 3160 3162 3164 3166 3168 3170 3173 3175 3177 3179 3181 3183 3185 3188 3190 3192 3193 3195 3196 3198 3200 3201 3203 3204 3205 3206 3207 3208 3209 3209
3076 3078 3079 3080 3081 3083 3087 3088 3089 3092 3095 3097 3099 3101 3101 3099 3101 3104 3102 3100 3099 3099 3104 3107 3108 3103 3098 3102 3107 3107 3110 3112 3113 3116 3117 3120 3123 3125 3126 3130 3134 3136 3136 3136 3137 3138 3139 3141 3143 3145 3147 3149 3151 3153 3155 3157 3158 3159 3161 3164 3166 3168 3170 3172 3175 3177 3179 3181 3183 3186 3188 3190 3191 3193 3195 3196 3198 3200 3201 3203 3204 3205 3206 3206 3207 3208
3068 3068 3069 3072 3074 3077 3080 3083 3085 3088 3091 3093 3095 3097 3097 3094 3094 3096 3096 3095 3095 3096 3099 3103 3102 3096 3096 3099 3101 3103 3107 3109 3111 3113 3114 3117 3121 3122 3123 3126 3131 3134 3134 3134 3135 3136 3137 3139 3141 3142 3144 3146 3148 3151 3153 3154 3156 3157 3159 3161 3163 3166 3168 3170 3172 3174 3177 3179 3182 3184 3186 3188 3189 3191 3193 3194 3196 3198 3199 3201 3202 3203 3204 3205 3206 3207
3062 3060 3062 3068 3071 3073 3076 3080 3084 3087 3088 3090 3093 3094 3092 3091 3092 3091 3090 3090 3092 3092 3093 3095 3094 3093 3096 3097 3098 3101 3102 3105 3108 3109 3112 3114 3117 3120 3121 3123 3128 3131 3133 3133 3133 3134 3136 3137 3139 3140 3142 3144 3146 3148 3150 3152 3153 3155 3156 3159 3161 3164 3166 3168 3170 3172 3175 3177 3180 3182 3184 3186 3187 3189 3191 3192 3194 3196 3198 3199 3200 3202 3203 3204 3205 3205
3057 3057 3061 3065 3068 3070 3073 3076 3081 3082 3083 3086 3088 3087 3087 3091 3092 3090 3089 3088 3090 3089 3086 3087 3089 3092 3095 3094 3095 3098 3099 3101 3103 3106 3109 3111 3113 3117 3118 3120 3123 3127 3130 3131 3131 3132 3134 3135 3136 3138 3140 3141 3143 3145 3147 3149 3151 3153 3155 3157 3159 3161 3163 3166 3168 3170 3173 3175 3177 3180 3182 3184 3185 3187 3189 3191 3193 3194 3196 3197 3199 3200 3201 3202 3203 3204
3054 3055 3057 3060 3063 3067 3071 3075 3078 3079 3080 3081 3082 3083 3087 3091 3092 3090 3088 3087 3089 3089 3084 3082 3084 3088 3091 3091 3092 3094 3096 3097 3099 3102 3105 3108 3110 3113 3116 3117 3119 3123 3127 3129 3129 3130 3132 3133 3135 3136 3137 3139 3141 3143 3144 3146 3149 3151 3153 3155 3157 3159 3161 3163 3165 3168 3170 3172 3175 3177 3179 3181 3183 3185 3187 3189 3191 3192 3194 3195 3196 3198 3199 3200 3201 3202
3053 3052 3051 3055 3059 3064 3069 3073 3074 3076 3077 3078 3079 3081 3084 3085 3085 3087 3087 3084 3085 3086 3084 3082 3082 3084 3086 3088 3089 3090 3092 3094 3096 3099 3102 3104 3107 3109 3112 3115 3117 3120 3125 3127 3127 3128 3129 3131 3133 3134 3135 3137 3139 3141 3143 3145 3147 3149 3151 3154 3155 3157 3159 3161 3163 3165 3167 3170 3172 3174 3177 3179 3181 3182 3184 3186 3188 3190 3191 3193 3194 3196 3197 3198 3199 3200
3052 3049 3046 3050 3056 3061 3065 3066 3065 3068 3073 3076 3077 3079 3079 3080 3081 3083 3084 3083 3082 3082 3082 3081 3081 3080 3081 3084 3086 3087 3089 3092 3094 3097 3099 3101 3104 3106 3110 3113 3115 3118 3122 3125 3126 3126 3127 3129 3131 3132 3134 3135 3137 3139 3141 3143 3144 3147 3149 3151 3153 3155 3157 3159 3160 3162 3164 3167 3169 3171 3174 3176 3178 3180 3182 3184 3185 3187 3189 3190 3192 3194 3195 3196 3197 3198
3050 3048 3045 3047 3054 3056 3056 3055 3057 3060 3065 3069 3071 3072 3074 3077 3079 3080 3081 3081 3081 3079 3078 3078 3076 3075 3077 3080 3083 3085 3087 3090 3093 3095 3097 3099 3102 3105 3107 3110 3113 3115 3118 3122 3124 3123 3124 3127 3129 3131 3132 3133 3135 3137 3139 3140 3142 3144 3146 3149 3151 3153 3154 3156 3157 3159 3161 3164 3166 3168 3170 3173 3175 3177 3179 3181 3183 3184 3186 3188 3189 3191 3193 3194 3195 3196
3047 3047 3044 3045 3049 3049 3048 3051 3055 3058 3061 3064 3066 3067 3069 3072 3074 3075 3075 3077 3080 3079 3077 3077 3074 3071 3075 3079 3082 3084 3087 3089 3091 3094 3096 3098 3101 3103 3106 3108 3111 3112 3114 3119 3122 3122 3123 3125 3127 3129 3130 3132 3133 3134 3136 3138 3139 3142 3143 3146 3148 3150 3151 3153 3155 3157 3159 3160 3162 3164 3167 3170 3172 3174 3176 3178 3180 3181 3183 3185 3187 3189 3190 3191 3193 3194
3046 3045 3042 3041 3044 3046 3047 3051 3054 3057 3060 3063 3064 3065 3067 3068 3069 3070 3070 3073 3077 3078 3078 3078 3076 3073 3075 3079 3081 3083 3085 3087 3090 3092 3094 3097 3099 3102 3104 3107 3109 3110 3112 3116 3120 3122 3121 3122 3124 3126 3128 3130 3131 3132 3133 3135 3137 3139 3141 3143 3145 3147 3149 3150 3152 3154 3156 3158 3160 3162 3165 3167 3169 3172 3174 3175 3177 3179 3180 3182 3184 3186 3187 3189 3190 3191
3046 3044 3041 3039 3041 3044 3047 3050 3052 3056 3058 3059 3059 3062 3063 3064 3066 3068 3070 3071 3073 3075 3076 3078 3077 3075 3076 3079 3081 3083 3085 3086 3088 3091 3093 3096 3098 3101 3104 3106 3107 3109 3111 3114 3118 3120 3119 3119 3121 3124 3126 3128 3129 3130 3131 3133 3134 3136 3138 3140 3142 3144 3146 3149 3151 3152 3154 3156 3158 3160 3162 3164 3166 3168 3170 3172 3174 3176 3178 3180 3181 3183 3185 3186 3188 3188
3040 3041 3041 3038 3037 3038 3042 3044 3047 3050 3051 3052 3054 3057 3060 3062 3065 3067 3069 3070 3070 3071 3073 3075 3075 3075 3075 3077 3080 3083 3084 3086 3088 3090 3092 3095 3097 3100 3103 3104 3104 3106 3108 3111 3114 3116 3116 3117 3119 3121 3123 3125 3127 3128 3129 3130 3132 3133 3135 3137 3139 3142 3144 3147 3148 3149 3151 3154 3156 3158 3159 3161 3163 3165 3167 3169 3170 3173 3175 3177 3178 3180 3182 3184 3185 3186
3034 3037 3039 3036 3032 3032 3035 3036 3038 3042 3045 3047 3050 3053 3056 3059 3062 3064 3066 3068 3068 3069 3071 3071 3072 3073 3075 3078 3080 3083 3084 3086 3087 3089 3092 3094 3097 3098 3099 3099 3100 3103 3106 3108 3111 3112 3113 3115 3117 3119 3121 3123 3125 3126 3127 3128 3129 3131 3132 3134 3137 3139 3141 3144 3145 3147 3149 3151 3153 3155 3156 3158 3160 3162 3164 3166 3168 3170 3172 3174 3175 3177 3178 3180 3182 3183
3034 3036 3037 3035 3031 3032 3035 3035 3037 3039 3042 3044 3045 3049 3053 3056 3059 3062 3063 3064 3066 3068 3070 3070 3071 3073 3075 3078 3081 3083 3085 3086 3088 3089 3092 3094 3095 3096 3096 3097 3100 3103 3105 3107 3109 3110 3111 3114 3115 3117 3119 3121 3123 3124 3125 3126 3127 3128 3130 3132 3134 3136 3138 3140 3142 3143 3145 3148 3150 3152 3154 3156 3158 3160 3162 3164 3166 3168 3170 3171 3173 3174 3175 3177 3179 3181
3035 3035 3035 3035 3034 3034 3036 3036 3036 3038 3039 3041 3043 3046 3049 3052 3056 3058 3058 3060 3064 3067 3068 3070 3072 3073 3075 3078 3081 3083 3085 3086 3088 3090 3092 3094 3095 3096 3097 3099 3102 3104 3105 3106 3107 3108 3110 3112 3114 3116 3118 3119 3121 3122 3123 3124 3125 3126 3128 3129 3131 3133 3134 3136 3138 3140 3142 3144 3147 3149 3151 3153 3155 3158 3160 3162 3164 3166 3167 3169 3170 3171 3173 3174 3175 3177
3034 3033 3034 3036 3035 3036 3037 3037 3037 3038 3039 3040 3041 3043 3046 3049 3051 3054 3056 3059 3063 3064 3066 3069 3072 3074 3075 3078 3080 3082 3084 3086 3088 3090 3091 3093 3095 3097 3098 3100 3102 3104 3105 3105 3106 3107 3109 3111 3113 3114 3116 3117 3119 3120 3122 3123 3124 3124 3125 3127 3128 3130 3132 3133 3135 3137 3138 3140 3143 3146 3148 3151 3153 3155 3158 3160 3162 3163 3165 3166 3168 3169 3170 3171 3172 3173
3032 3034 3035 3036 3036 3036 3037 3038 3038 3038 3038 3038 3039 3041 3043 3046 3048 3051 3055 3059 3061 3063 3066 3068 3070 3073 3075 3077 3080 3082 3083 3085 3087 3088 3089 3091 3093 3094 3096 3098 3101 3103 3104 3104 3105 3106 3107 3109 3110 3112 3113 3115 3116 3118 3119 3121 3122 3123 3123 3124 3125 3127 3129 3130 3131 3133 3135 3137 3140 3143 3146 3148 3150 3152 3155 3157 3159 3161 3163 3164 3165 3166 3167 3168 3168 3170
3032 3034 3034 3034 3035 3035 3035 3038 3038 3038 3038 3039 3038 3039 3040 3043 3046 3050 3053 3056 3059 3062 3065 3067 3069 3072 3074 3076 3078 3079 3079 3081 3083 3084 3086 3089 3090 3092 3095 3097 3099 3100 3102 3103 3105 3106 3105 3106 3107 3109 3111 3112 3114 3115 3117 3118 3119 3120 3121 3122 3123 3124 3126 3127 3128 3130 3132 3134 3137 3140 3142 3145 3147 3149 3151 3154 3156 3158 3160 3161 3162 3163 3165 3165 3165 3166
3033 3033 3032 3033 3034 3032 3034 3037 3038 3038 3040 3039 3038 3038 3039 3041 3043 3047 3050 3053 3056 3059 3063 3066 3068 3071 3072 3074 3074 3075 3077 3080 3081 3083 3085 3086 3088 3090 3093 3095 3096 3098 3100 3101 3103 3103 3103 3104 3105 3106 3108 3110 3111 3112 3114 3115 3116 3117 3119 3120 3120 3121 3123 3125 3126 3127 3129 3131 3134 3136 3139 3141 3144 3146 3148 3150 3153 3155 3156 3158 3160 3161 3161 3162 3163 3164
3032 3031 3031 3032 3032 3031 3033 3035 3038 3041 3040 3036 3036 3038 3040 3042 3044 3047 3050 3052 3055 3059 3061 3064 3067 3070 3071 3072 3074 3075 3078 3080 3081 3083 3084 3085 3086 3088 3089 3091 3094 3096 3097 3098 3099 3101 3102 3103 3104 3104 3105 3107 3108 3110 3111 3112 3113 3115 3116 3117 3118 3119 3121 3122 3124 3125 3127 3129 3131 3133 3135 3138 3140 3143 3145 3147 3150 3151 3153 3155 3156 3157 3158 3159 3160 3161
3032 3031 3031 3031 3031 3031 3032 3034 3038 3037 3032 3031 3036 3040 3042 3043 3045 3047 3049 3052 3055 3057 3059 3063 3066 3069 3070 3072 3073 3075 3077 3078 3079 3080 3081 3083 3084 3085 3087 3089 3091 3093 3094 3095 3097 3098 3099 3100 3100 3101 3103 3104 3106 3107 3108 3109 3111 3112 3114 3115 3116 3117 3119 3120 3122 3123 3124 3126 3128 3130 3132 3135 3137 3140 3142 3144 3146 3148 3150 3151 3153 3154 3155 3156 3157 3158
3032 3032 3032 3032 3031 3029 3030 3034 3036 3031 3027 3031 3038 3040 3041 3044 3046 3048 3050 3052 3054 3056 3058 3062 3064 3066 3068 3070 3072 3073 3074 3075 3076 3077 3078 3081 3082 3084 3085 3087 3088 3090 3092 3093 3094 3094 3095 3096 3098 3099 3101 3102 3103 3105 3106 3107 3108 3110 3111 3113 3114 3115 3116 3118 3119 3121 3122 3124 3126 3128 3129 3132 3134 3137 3139 3141 3143 3145 3146 3148 3149 3151 3152 3153 3154 3155
3032 3032 3032 3032 3031 3029 3027 3030 3032 3030 3029 3033 3036 3037 3040 3042 3044 3047 3048 3050 3052 3055 3057 3060 3062 3065 3067 3068 3069 3070 3071 3072 3073 3074 3076 3079 3081 3082 3083 3085 3087 3089 3089 3089 3089 3091 3093 3095 3096 3097 3099 3100 3101 3102 3104 3105 3106 3108 3109 3111 3112 3113 3115 3116 3117 3119 3120 3122 3124 3125 3127 3129 3131 3133 3136 3137 3139 3141 3143 3144 3146 3147 3149 3149 3150 3151
3032 3032 3033 3032 3031 3029 3027 3027 3030 3031 3031 3033 3034 3036 3039 3040 3042 3045 3045 3047 3050 3053 3056 3057 3060 3062 3063 3065 3067 3068 3068 3069 3070 3072 3076 3078 3079 3080 3081 3082 3084 3085 3085 3085 3086 3089 3091 3092 3093 3095 3097 3098 3099 3100 3102 3103 3105 3106 3107 3109 3110 3111 3113 3114 3115 3117 3118 3120 3121 3123 3124 3126 3128 3130 3132 3134 3136 3137 3139 3140 3142 3143 3145 3146 3146 3147
3031 3032 3034 3033 3032 3030 3029 3028 3028 3028 3028 3030 3033 3035 3038 3040 3042 3044 3045 3046 3048 3051 3053 3054 3056 3058 3060 3062 3064 3064 3064 3066 3069 3073 3075 3075 3076 3076 3077 3079 3080 3080 3081 3083 3085 3087 3088 3089 3091 3093 3094 3095 3096 3098 3099 3101 3102 3104 3105 3106 3108 3109 3111 3112 3113 3114 3116 3117 3118 3120 3122 3123 3125 3127 3129 3131 3132 3134 3135 3137 3138 3139 3141 3142 3143 3143
3030 3032 3034 3034 3032 3031 3031 3029 3026 3026 3026 3029 3032 3034 3036 3038 3040 3042 3045 3045 3046 3048 3050 3052 3055 3057 3058 3060 3060 3060 3062 3066 3071 3073 3072 3071 3072 3073 3074 3075 3077 3078 3080 3082 3083 3084 3085 3087 3089 3090 3091 3092 3094 3095 3097 3099 3100 3101 3102 3104 3105 3106 3108 3110 3111 3112 3113 3114 3116 3117 3119 3120 3122 3124 3125 3127 3129 3130 3132 3133 3134 3136 3137 3138 3139 3140
3028 3030 3032 3033 3032 3031 3032 3030 3027 3027 3027 3029 3031 3032 3034 3036 3038 3041 3042 3042 3042 3045 3046 3049 3053 3055 3055 3055 3055 3057 3060 3064 3069 3069 3067 3068 3070 3070 3071 3073 3074 3076 3078 3079 3080 3082 3083 3084 3085 3087 3088 3089 3091 3093 3094 3096 3097 3098 3100 3101 3102 3104 3106 3107 3108 3109 3110 3111 3113 3114 3116 3118 3119 3121 3122 3124 3125 3127 3128 3129 3131 3132 3133 3134 3135 3135
3026 3028 3030 3031 3031 3031 3031 3030 3028 3027 3028 3030 3031 3031 3033 3035 3037 3038 3038 3037 3039 3041 3044 3046 3049 3049 3050 3050 3052 3054 3056 3059 3061 3063 3063 3065 3067 3067 3068 3070 3071 3073 3075 3076 3077 3080 3081 3081 3083 3084 3085 3087 3089 3090 3091 3093 3094 3096 3097 3098 3100 3101 3103 3104 3105 3106 3107 3108 3109 3111 3113 3115 3116 3117 3119 3120 3122 3123 3125 3126 3127 3128 3129 3130 3130 3130
3024 3025 3027 3028 3029 3030 3030 3030 3029 3027 3027 3028 3030 3031 3032 3034 3034 3034 3034 3035 3037 3039 3041 3043 3044 3045 3046 3047 3048 3050 3051 3053 3056 3058 3060 3062 3063 3064 3066 3067 3068 3070 3072 3073 3075 3076 3077 3079 3080 3081 3083 3084 3085 3087 3088 3090 3092 3093 3094 3096 3097 3098 3099 3099 3101 3103 3104 3105 3106 3107 3109 3111 3112 3114 3116 3117 3118 3119 3120 3121 3122 3123 3124 3125 3125 3126
3020 3022 3022 3024 3026 3027 3027 3028 3027 3026 3024 3025 3029 3031 3031 3031 3031 3032 3032 3033 3035 3037 3038 3040 3041 3042 3043 3044 3045 3046 3048 3051 3053 3054 3055 3058 3060 3061 3063 3064 3065 3067 3069 3070 3071 3073 3075 3076 3077 3078 3080 3081 3082 3084 3085 3087 3088 3090 3092 3093 3094 3095 3095 3096 3098 3099 3101 3102 3103 3104 3105 3107 3109 3110 3112 3113 3114 3115 3116 3117 3117 3118 3119 3120 3121 3121
3018 3019 3019 3021 3023 3024 3023 3023 3024 3023 3022 3023 3026 3028 3028 3027 3028 3029 3031 3032 3034 3035 3036 3037 3039 3040 3041 3042 3043 3044 3046 3048 3049 3050 3052 3054 3056 3058 3060 3061 3062 3064 3065 3067 3068 3070 3072 3073 3074 3075 3076 3077 3079 3081 3082 3083 3085 3087 3088 3090 3091 3092 3093 3094 3095 3096 3098 3099 3100 3101 3102 3103 3105 3106 3108 3109 3110 3111 3112 3113 3113 3114 3115 3115 3116 3116
3017 3018 3018 3017 3018 3018 3018 3019 3020 3020 3020 3022 3025 3024 3024 3024 3026 3027 3029 3030 3032 3033 3034 3035 3036 3037 3039 3040 3041 3042 3043 3045 3046 3047 3049 3051 3053 3055 3057 3058 3059 3061 3062 3063 3064 3066 3068 3069 3070 3072 3073 3074 3076 3078 3079 3080 3082 3083 3085 3087 3088 3089 3090 3091 3092 3093 3095 3096 3097 3098 3099 3100 3101 3103 3104 3105 3106 3106 3108 3109 3109 3110 3110 3111 3111 3111
3016 3016 3017 3016 3016 3016 3015 3016 3018 3019 3020 3022 3023 3021 3021 3024 3026 3027 3027 3028 3029 3030 3032 3033 3035 3036 3037 3038 3039 3040 3041 3042 3044 3045 3046 3048 3050 3052 3054 3056 3057 3058 3059 3060 3061 3062 3064 3065 3067 3069 3071 3072 3073 3074 3076 3077 3078 3080 3081 3083 3085 3086 3087 3088 3089 3090 3092 3093 3094 3095 3096 3097 3098 3100 3101 3102 3102 3103 3104 3105 3106 3106 3107 3107 3108 3108
3015 3016 3016 3016 3016 3016 3015 3016 3018 3019 3020 3020 3019 3020 3022 3025 3026 3026 3026 3026 3027 3029 3031 3032 3034 3035 3036 3036 3037 3039 3039 3041 3042 3043 3045 3046 3047 3049 3051 3053 3054 3055 3056 3057 3058 3059 3061 3062 3064 3066 3068 3069 3070 3071 3073 3074 3076 3077 3078 3080 3081 3082 3084 3085 3086 3087 3089 3090 3091 3092 3093 3094 3095 3097 3098 3099 3100 3100 3101 3102 3102 3103 3103 3104 3104 3104
3014 3014 3015 3015 3016 3016 3015 3015 3016 3016 3016 3016 3017 3020 3023 3023 3023 3023 3024 3025 3026 3028 3030 3031 3032 3034 3035 3036 3037 3038 3039 3039 3040 3041 3042 3043 3045 3047 3048 3049 3051 3052 3053 3054 3055 3056 3058 3059 3061 3063 3064 3065 3067 3068 3069 3071 3073 3074 3075 3077 3078 3079 3080 3082 3083 3084 3085 3087 3088 3089 3090 3091 3092 3093 3094 3095 3096 3096 3097 3098 3099 3099 3099 3100 3101 3101
3012 3011 3012 3014 3014 3014 3014 3014 3013 3012 3012 3014 3017 3021 3021 3019 3018 3019 3021 3023 3025 3027 3028 3029 3031 3032 3034 3035 3036 3037 3038 3038 3039 3039 3039 3041 3042 3044 3045 3047 3048 3049 3050 3051 3052 3054 3055 3056 3058 3059 3061 3062 3064 3065 3066 3068 3069 3071 3072 3073 3075 3076 3077 3078 3080 3081 3082 3083 3084 3085 3087 3087 3088 3089 3090 3091 3092 3092 3093 3094 3095 3095 3096 3097 3097 3098
3010 3010 3010 3012 3012 3011 3012 3013 3013 3013 3012 3013 3016 3017 3016 3013 3013 3016 3019 3021 3023 3024 3025 3027 3029 3030 3032 3033 3034 3035 3036 3037 3038 3038 3038 3039 3040 3041 3042 3044 3045 3046 3047 3048 3049 3051 3052 3053 3054 3056 3057 3059 3060 3061 3063 3064 3066 3067 3068 3070 3071 3072 3074 3075 3076 3077 3078 3080 3081 3082 3083 3084 3085 3086 3087 3087 3088 3089 3090 3091 3091 3092 3092 3093 3093 3094
3008 3007 3008 3009 3009 3009 3010 3011 3012 3011 3009 3009 3010 3011 3010 3009 3010 3013 3016 3018 3020 3021 3022 3024 3026 3028 3030 3031 3032 3033 3034 3035 3036 3036 3036 3036 3037 3038 3039 3040 3041 3042 3044 3045 3047 3048 3049 3050 3051 3052 3054 3055 3057 3058 3060 3061 3062 3063 3065 3066 3068 3069 3070 3072 3073 3074 3075 3077 3078 3079 3080 3081 3081 3083 3084 3084 3085 3086 3087 3087 3088 3089 3089 3089 3089 3090